Simultaneous Nadir Overpasses (SNOs) Predictions

Prediction of SNOs between AQUA and METOP-A Satellite Orbit:

Table of predicted SNOs for the next 14.0 days since TLE Epoch: 12/6/2019
Index Date (AQUA) Time (AQUA) Lat,Lon (AQUA) SZA (AQUA ) Date (METOP-A) Time (METOP-A) Lat,Lon (METOP-A) SZA (METOP-A ) Distance(km) Time Diff (sec)
1 12/07/2019 19:50:47 -75.66, 51.99 81.66 12/07/2019 19:49:45 -75.68, 52.07 81.63 3.28 62
2 12/07/2019 20:40:16 75.72,-140.56 98.42 12/07/2019 20:40:24 75.72,-140.46 98.42 2.77 8
3 12/07/2019 21:29:49 -76.09, 25.96 81.17 12/07/2019 21:30:57 -76.13, 28.18 81.21 59.35 68
4 12/10/2019 15:25:03 -75.65, 118.45 81.37 12/10/2019 15:24:09 -75.65, 118.33 81.36 3.35 54
5 12/10/2019 16:14:32 75.71, -74.10 98.71 12/10/2019 16:14:47 75.74, -74.06 98.73 2.89 15
6 12/13/2019 10:59:20 -75.69,-175.25 81.09 12/13/2019 10:58:32 -75.67,-175.26 81.11 3.22 48
7 12/13/2019 11:48:49 75.76, -7.80 98.99 12/13/2019 11:49:10 75.75, -7.67 98.97 3.80 21
8 12/16/2019 06:33:35 -75.70,-108.81 80.92 12/16/2019 06:32:54 -75.68,-108.86 80.92 2.20 41
9 12/16/2019 07:23:04 75.76, 58.63 99.16 12/16/2019 07:23:32 75.76, 58.72 99.15 2.54 28
10 12/19/2019 02:07:51 -75.70, -42.40 80.80 12/19/2019 02:07:17 -75.69, -42.46 80.80 2.16 34
11 12/19/2019 02:57:20 75.77, 125.04 99.28 12/19/2019 02:57:55 75.77, 125.11 99.27 1.75 35




NCC Satellite Simultaneous Nadir Overpasses (SNOs) Prediction Service
